EAG368 SBEG-SKRG

Flight info

Callsign EAG368
Flight time 2h 27m
Altitude 36000
Route SINUN UP527 DADKA UM549 EDRAN DCT NIRSO NIRSO3C
Aircraft B748/H-SDE3FGHIM1M2RWXY/LB1

Departure

Time 2026-04-20 22:30
Airport Eduardo Gomes International Airport (SBEG)

Arrival

Time 2026-04-21 00:58
Airport Jose Maria Córdova International Airport (SKRG)
Time Latitude Longitude Altitude Speed Heading
2026-04-20 22:01 -3.03235 -60.04358 277 ft 0 kts 341°
2026-04-20 22:16 -3.03239 -60.04357 277 ft 3 kts 340°
2026-04-20 22:16 -3.03263 -60.04347 277 ft 4 kts 325°
2026-04-20 22:16 -3.03282 -60.04331 277 ft 4 kts 303°
2026-04-20 22:17 -3.03291 -60.04311 277 ft 4 kts 273°
2026-04-20 22:17 -3.03291 -60.04296 277 ft 0 kts 255°
2026-04-20 22:21 -3.03293 -60.04304 277 ft 3 kts 255°
2026-04-20 22:21 -3.03303 -60.04339 277 ft 7 kts 255°
2026-04-20 22:22 -3.03319 -60.04400 277 ft 11 kts 255°
2026-04-20 22:22 -3.03342 -60.04487 277 ft 15 kts 256°
2026-04-20 22:22 -3.03351 -60.04596 277 ft 16 kts 269°
2026-04-20 22:22 -3.03350 -60.04702 277 ft 15 kts 276°
2026-04-20 22:23 -3.03343 -60.04802 277 ft 14 kts 247°
2026-04-20 22:23 -3.03420 -60.04856 277 ft 13 kts 206°
2026-04-20 22:23 -3.03498 -60.04900 277 ft 13 kts 217°
2026-04-20 22:23 -3.03558 -60.04962 277 ft 12 kts 243°
2026-04-20 22:24 -3.03589 -60.05039 277 ft 12 kts 252°
2026-04-20 22:24 -3.03611 -60.05116 277 ft 11 kts 256°
2026-04-20 22:24 -3.03630 -60.05190 277 ft 11 kts 256°
2026-04-20 22:24 -3.03648 -60.05262 277 ft 10 kts 255°
2026-04-20 22:25 -3.03665 -60.05330 277 ft 10 kts 256°
2026-04-20 22:25 -3.03680 -60.05401 277 ft 11 kts 261°
2026-04-20 22:25 -3.03689 -60.05487 277 ft 13 kts 266°
2026-04-20 22:25 -3.03691 -60.05583 277 ft 14 kts 271°
2026-04-20 22:26 -3.03690 -60.05677 277 ft 13 kts 271°
2026-04-20 22:26 -3.03689 -60.05766 277 ft 13 kts 271°
2026-04-20 22:26 -3.03688 -60.05852 277 ft 12 kts 270°
2026-04-20 22:27 -3.03691 -60.06013 277 ft 11 kts 270°
2026-04-20 22:27 -3.03692 -60.06089 277 ft 11 kts 264°
2026-04-20 22:27 -3.03719 -60.06155 277 ft 10 kts 226°
2026-04-20 22:27 -3.03756 -60.06171 277 ft 0 kts 186°
2026-04-20 22:29 -3.03776 -60.06173 277 ft 9 kts 184°
2026-04-20 22:29 -3.03840 -60.06174 277 ft 9 kts 159°
2026-04-20 22:29 -3.03859 -60.06119 277 ft 9 kts 90°
2026-04-20 22:29 -3.03860 -60.06010 277 ft 27 kts 90°
2026-04-20 22:30 -3.03860 -60.05617 278 ft 88 kts 89°
2026-04-20 22:30 -3.03860 -60.04794 278 ft 148 kts 90°
2026-04-20 22:30 -3.03869 -60.03613 406 ft 183 kts 91°
2026-04-20 22:30 -3.03914 -60.02327 1118 ft 184 kts 92°
2026-04-20 22:31 -3.03887 -60.01040 1902 ft 186 kts 79°
2026-04-20 22:31 -3.03330 -59.99883 2401 ft 190 kts 49°
2026-04-20 22:31 -3.02158 -59.99223 2744 ft 201 kts 21°
2026-04-20 22:31 -3.00773 -59.98992 3112 ft 211 kts
2026-04-20 22:32 -2.99249 -59.99007 3302 ft 228 kts
2026-04-20 22:32 -2.97595 -59.99001 3478 ft 246 kts
2026-04-20 22:32 -2.95819 -59.98993 3659 ft 265 kts
2026-04-20 22:32 -2.93904 -59.98990 3896 ft 283 kts
2026-04-20 22:33 -2.91888 -59.98988 4406 ft 295 kts
2026-04-20 22:33 -2.89841 -59.98987 5357 ft 292 kts
2026-04-20 22:33 -2.87804 -59.98988 6247 ft 294 kts 360°
2026-04-20 22:33 -2.85732 -59.99089 6890 ft 301 kts 347°
2026-04-20 22:34 -2.83841 -59.99923 7751 ft 298 kts 324°
2026-04-20 22:34 -2.82442 -60.01429 8367 ft 303 kts 300°
2026-04-20 22:34 -2.81792 -60.03388 9263 ft 297 kts 276°
2026-04-20 22:34 -2.81888 -60.05452 10047 ft 297 kts 262°
2026-04-20 22:35 -2.82200 -60.07515 10650 ft 307 kts 264°
2026-04-20 22:35 -2.82328 -60.09710 10909 ft 329 kts 268°
2026-04-20 22:35 -2.82297 -60.12093 11100 ft 352 kts 271°
2026-04-20 22:35 -2.82195 -60.14624 11269 ft 375 kts 272°
2026-04-20 22:36 -2.82084 -60.17306 11592 ft 392 kts 269°
2026-04-20 22:36 -2.82133 -60.20065 12222 ft 400 kts 267°
2026-04-20 22:36 -2.82243 -60.22870 12837 ft 408 kts 267°
2026-04-20 22:36 -2.82319 -60.25708 13437 ft 416 kts 268°
2026-04-20 22:37 -2.82376 -60.28624 14070 ft 422 kts 268°
2026-04-20 22:37 -2.82414 -60.31572 14691 ft 428 kts 271°
2026-04-20 22:37 -2.82095 -60.34556 15329 ft 433 kts 279°
2026-04-20 22:37 -2.81469 -60.37518 15956 ft 439 kts 283°
2026-04-20 22:38 -2.80681 -60.40489 16562 ft 444 kts 285°
2026-04-20 22:38 -2.79809 -60.43479 17156 ft 448 kts 285°
2026-04-20 22:38 -2.78936 -60.46483 17730 ft 453 kts 285°
2026-04-20 22:38 -2.78068 -60.49533 18286 ft 457 kts 285°
2026-04-20 22:39 -2.77204 -60.52612 18829 ft 462 kts 285°
2026-04-20 22:39 -2.76341 -60.55712 19353 ft 466 kts 285°
2026-04-20 22:39 -2.75471 -60.58854 19860 ft 470 kts 284°
2026-04-20 22:39 -2.74604 -60.61988 20350 ft 475 kts 285°
2026-04-20 22:40 -2.73723 -60.65180 20835 ft 479 kts 285°
2026-04-20 22:40 -2.72832 -60.68413 21306 ft 483 kts 285°
2026-04-20 22:40 -2.71938 -60.71661 21768 ft 487 kts 285°
2026-04-20 22:40 -2.71032 -60.74949 22219 ft 491 kts 285°
2026-04-20 22:41 -2.70121 -60.78254 22660 ft 495 kts 285°
2026-04-20 22:41 -2.69204 -60.81581 23089 ft 499 kts 285°
2026-04-20 22:41 -2.68275 -60.84951 23513 ft 502 kts 285°
2026-04-20 22:41 -2.67342 -60.88333 23926 ft 506 kts 285°
2026-04-20 22:42 -2.66406 -60.91733 24330 ft 510 kts 285°
2026-04-20 22:42 -2.65460 -60.95166 24727 ft 513 kts 285°
2026-04-20 22:42 -2.64510 -60.98610 25112 ft 516 kts 285°
2026-04-20 22:42 -2.63548 -61.02095 25488 ft 520 kts 285°
2026-04-20 22:43 -2.62582 -61.05597 25853 ft 523 kts 285°
2026-04-20 22:43 -2.61623 -61.09071 26199 ft 526 kts 285°
2026-04-20 22:43 -2.60644 -61.12617 26540 ft 529 kts 285°
2026-04-20 22:43 -2.59663 -61.16170 26867 ft 532 kts 285°
2026-04-20 22:44 -2.58664 -61.19745 27182 ft 535 kts 287°
2026-04-20 22:44 -2.57457 -61.23273 27491 ft 538 kts 291°
2026-04-20 22:44 -2.56062 -61.26761 27783 ft 540 kts 293°
2026-04-20 22:44 -2.54582 -61.30216 28072 ft 543 kts 294°
2026-04-20 22:45 -2.53094 -61.33690 28455 ft 543 kts 294°
2026-04-20 22:45 -2.52116 -61.36004 28758 ft 542 kts 293°
2026-04-20 22:45 -2.50168 -61.40657 29309 ft 541 kts 293°
2026-04-20 22:45 -2.48739 -61.44087 29713 ft 541 kts 293°
2026-04-20 22:46 -2.47291 -61.47569 30118 ft 541 kts 293°
2026-04-20 22:46 -2.45850 -61.51040 30524 ft 540 kts 293°
2026-04-20 22:46 -2.44874 -61.53393 30798 ft 540 kts 293°
2026-04-20 22:46 -2.43454 -61.56818 31198 ft 539 kts 294°
2026-04-20 22:47 -2.42017 -61.60285 31596 ft 539 kts 294°
2026-04-20 22:47 -2.40581 -61.63746 32016 ft 538 kts 294°
2026-04-20 22:47 -2.39148 -61.67201 32459 ft 537 kts 294°
2026-04-20 22:47 -2.37720 -61.70644 32879 ft 535 kts 293°
2026-04-20 22:48 -2.36294 -61.74080 33269 ft 534 kts 293°
2026-04-20 22:48 -2.34869 -61.77514 33654 ft 533 kts 293°
2026-04-20 22:48 -2.33448 -61.80941 34018 ft 531 kts 293°
2026-04-20 22:48 -2.32037 -61.84341 34363 ft 530 kts 293°
2026-04-20 22:49 -2.30626 -61.87742 34681 ft 529 kts 293°
2026-04-20 22:49 -2.29216 -61.91138 34975 ft 527 kts 293°
2026-04-20 22:49 -2.27815 -61.94512 35241 ft 526 kts 292°
2026-04-20 22:49 -2.26411 -61.97893 35486 ft 525 kts 292°
2026-04-20 22:50 -2.25027 -62.01226 35709 ft 524 kts 292°
2026-04-20 22:50 -2.23628 -62.04595 35867 ft 524 kts 292°
2026-04-20 22:50 -2.20824 -62.11348 35904 ft 524 kts 292°
2026-04-20 22:51 -2.18027 -62.18081 35905 ft 524 kts 292°
2026-04-20 22:51 -2.15236 -62.24802 35905 ft 524 kts 292°
2026-04-20 22:52 -2.12442 -62.31536 35905 ft 524 kts 292°
2026-04-20 22:52 -2.09666 -62.38223 35905 ft 524 kts 292°
2026-04-20 22:53 -2.06869 -62.44957 35905 ft 524 kts 292°
2026-04-20 22:53 -2.04079 -62.51672 35906 ft 524 kts 292°
2026-04-20 22:54 -2.01276 -62.58416 35906 ft 524 kts 293°
2026-04-20 22:54 -1.98405 -62.65117 35905 ft 524 kts 293°
2026-04-20 22:55 -1.95537 -62.71818 35905 ft 524 kts 293°
2026-04-20 22:55 -1.92670 -62.78529 35905 ft 524 kts 293°
2026-04-20 22:56 -1.89810 -62.85224 35906 ft 524 kts 293°
2026-04-20 22:56 -1.86969 -62.91877 35905 ft 524 kts 293°
2026-04-20 22:57 -1.84112 -62.98572 35905 ft 524 kts 293°
2026-04-20 22:57 -1.81244 -63.05285 35905 ft 524 kts 293°
2026-04-20 22:58 -1.78382 -63.11985 35905 ft 524 kts 293°
2026-04-20 22:58 -1.75516 -63.18691 35905 ft 524 kts 293°
2026-04-20 22:59 -1.72525 -63.25334 35905 ft 524 kts 297°
2026-04-20 22:59 -1.69074 -63.31693 35905 ft 524 kts 300°
2026-04-20 23:00 -1.65532 -63.38062 35906 ft 524 kts 299°
2026-04-20 23:00 -1.62021 -63.44452 35905 ft 524 kts 299°
2026-04-20 23:01 -1.58526 -63.50839 35905 ft 524 kts 299°
2026-04-20 23:01 -1.55032 -63.57235 35905 ft 524 kts 299°
2026-04-20 23:02 -1.51537 -63.63634 35906 ft 524 kts 299°
2026-04-20 23:02 -1.48066 -63.69991 35905 ft 524 kts 299°
2026-04-20 23:03 -1.44575 -63.76382 35905 ft 524 kts 299°
2026-04-20 23:03 -1.41087 -63.82768 35905 ft 524 kts 299°
2026-04-20 23:04 -1.37596 -63.89158 35905 ft 524 kts 299°
2026-04-20 23:04 -1.34104 -63.95550 35906 ft 524 kts 299°
2026-04-20 23:05 -1.30609 -64.01947 35905 ft 524 kts 299°
2026-04-20 23:05 -1.27122 -64.08330 35905 ft 524 kts 299°
2026-04-20 23:06 -1.23646 -64.14691 35905 ft 524 kts 299°
2026-04-20 23:06 -1.20154 -64.21081 35902 ft 524 kts 299°
2026-04-20 23:07 -1.16659 -64.27475 35884 ft 525 kts 299°
2026-04-20 23:07 -1.13154 -64.33889 35885 ft 525 kts 299°
2026-04-20 23:08 -1.09648 -64.40303 35884 ft 525 kts 299°
2026-04-20 23:08 -1.06143 -64.46716 35883 ft 525 kts 299°
2026-04-20 23:09 -1.02661 -64.53086 35883 ft 525 kts 299°
2026-04-20 23:09 -0.99152 -64.59504 35883 ft 525 kts 299°
2026-04-20 23:10 -0.95649 -64.65911 35883 ft 525 kts 299°
2026-04-20 23:10 -0.92136 -64.72337 35882 ft 525 kts 299°
2026-04-20 23:11 -0.88634 -64.78743 35883 ft 525 kts 299°
2026-04-20 23:11 -0.85151 -64.85114 35883 ft 525 kts 299°
2026-04-20 23:12 -0.81647 -64.91522 35883 ft 525 kts 299°
2026-04-20 23:12 -0.79469 -64.95506 35884 ft 525 kts 299°
2026-04-20 23:13 -0.75965 -65.01914 35884 ft 525 kts 299°
2026-04-20 23:13 -0.72459 -65.08326 35884 ft 525 kts 299°
2026-04-20 23:14 -0.68958 -65.14727 35885 ft 525 kts 299°
2026-04-20 23:14 -0.65513 -65.21137 35888 ft 525 kts 297°
2026-04-20 23:15 -0.62179 -65.27646 35888 ft 525 kts 297°
2026-04-20 23:15 -0.58829 -65.34133 35887 ft 525 kts 297°
2026-04-20 23:16 -0.55470 -65.40630 35888 ft 525 kts 297°
2026-04-20 23:16 -0.52118 -65.47115 35891 ft 525 kts 297°
2026-04-20 23:17 -0.48761 -65.53610 35891 ft 525 kts 297°
2026-04-20 23:17 -0.45432 -65.60053 35892 ft 525 kts 297°
2026-04-20 23:18 -0.42086 -65.66526 35894 ft 525 kts 297°
2026-04-20 23:18 -0.38738 -65.73005 35894 ft 525 kts 297°
2026-04-20 23:19 -0.35383 -65.79493 35894 ft 525 kts 297°
2026-04-20 23:19 -0.32024 -65.85993 35896 ft 524 kts 297°
2026-04-20 23:20 -0.28698 -65.92428 35899 ft 524 kts 297°
2026-04-20 23:20 -0.25351 -65.98907 35898 ft 524 kts 297°
2026-04-20 23:21 -0.22002 -66.05389 35898 ft 524 kts 297°
2026-04-20 23:21 -0.18659 -66.11859 35900 ft 524 kts 297°
2026-04-20 23:22 -0.15308 -66.18343 35902 ft 524 kts 297°
2026-04-20 23:22 -0.11982 -66.24780 35901 ft 524 kts 297°
2026-04-20 23:23 -0.08634 -66.31253 35902 ft 524 kts 297°
2026-04-20 23:23 -0.05288 -66.37726 35903 ft 524 kts 297°
2026-04-20 23:24 -0.01945 -66.44193 35904 ft 524 kts 297°
2026-04-20 23:24 0.01404 -66.50674 35904 ft 524 kts 297°
2026-04-20 23:25 0.04725 -66.57102 35905 ft 523 kts 297°
2026-04-20 23:25 0.08062 -66.63558 35905 ft 523 kts 297°
2026-04-20 23:26 0.11402 -66.70022 35905 ft 523 kts 297°
2026-04-20 23:26 0.14741 -66.76483 35905 ft 523 kts 297°
2026-04-20 23:27 0.18084 -66.82952 35905 ft 523 kts 297°
2026-04-20 23:27 0.21427 -66.89422 35905 ft 523 kts 297°
2026-04-20 23:28 0.24765 -66.95884 35906 ft 523 kts 297°
2026-04-20 23:28 0.28085 -67.02310 35905 ft 523 kts 297°
2026-04-20 23:29 0.31428 -67.08779 35905 ft 523 kts 297°
2026-04-20 23:29 0.34767 -67.15241 35906 ft 523 kts 297°
2026-04-20 23:30 0.38116 -67.21714 35905 ft 523 kts 297°
2026-04-20 23:30 0.41437 -67.28139 35905 ft 523 kts 297°
2026-04-20 23:31 0.44778 -67.34602 35906 ft 524 kts 297°
2026-04-20 23:31 0.48119 -67.41066 35905 ft 523 kts 297°
2026-04-20 23:32 0.51457 -67.47526 35905 ft 524 kts 297°
2026-04-20 23:32 0.54244 -67.52918 35905 ft 524 kts 297°
2026-04-20 23:33 0.57592 -67.59396 35906 ft 524 kts 297°
2026-04-20 23:33 0.60938 -67.65870 35905 ft 524 kts 297°
2026-04-20 23:34 0.64260 -67.72299 35898 ft 523 kts 297°
2026-04-20 23:34 0.67595 -67.78753 35899 ft 522 kts 297°
2026-04-20 23:35 0.72600 -67.88440 35899 ft 523 kts 297°
2026-04-20 23:36 0.75938 -67.94902 35899 ft 523 kts 297°
2026-04-20 23:36 0.79273 -68.01356 35899 ft 523 kts 297°
2026-04-20 23:37 0.82609 -68.07814 35899 ft 523 kts 297°
2026-04-20 23:37 0.85949 -68.14278 35899 ft 523 kts 297°
2026-04-20 23:38 0.89263 -68.20694 35899 ft 523 kts 297°
2026-04-20 23:38 0.92600 -68.27156 35900 ft 523 kts 297°
2026-04-20 23:39 0.95936 -68.33614 35900 ft 523 kts 297°
2026-04-20 23:39 0.99278 -68.40084 35900 ft 523 kts 297°
2026-04-20 23:40 1.02593 -68.46503 35900 ft 523 kts 297°
2026-04-20 23:40 1.05934 -68.52972 35900 ft 523 kts 297°
2026-04-20 23:41 1.09267 -68.59428 35900 ft 523 kts 297°
2026-04-20 23:41 1.12604 -68.65889 35900 ft 523 kts 297°
2026-04-20 23:42 1.15943 -68.72356 35900 ft 523 kts 297°
2026-04-20 23:42 1.19282 -68.78823 35899 ft 523 kts 297°
2026-04-20 23:43 1.22599 -68.85249 35900 ft 523 kts 297°
2026-04-20 23:43 1.25931 -68.91704 35898 ft 523 kts 297°
2026-04-20 23:44 1.29262 -68.98158 35897 ft 522 kts 297°
2026-04-20 23:44 1.32564 -69.04554 35898 ft 522 kts 297°
2026-04-20 23:45 1.35911 -69.11040 35898 ft 522 kts 297°
2026-04-20 23:45 1.39247 -69.17505 35896 ft 522 kts 297°
2026-04-20 23:46 1.42575 -69.23954 35892 ft 521 kts 297°
2026-04-20 23:46 1.45905 -69.30409 35893 ft 521 kts 297°
2026-04-20 23:47 1.49225 -69.36844 35892 ft 521 kts 297°
2026-04-20 23:47 1.52531 -69.43253 35889 ft 521 kts 297°
2026-04-20 23:48 1.55851 -69.49688 35888 ft 521 kts 297°
2026-04-20 23:48 1.59169 -69.56121 35887 ft 521 kts 297°
2026-04-20 23:49 1.62496 -69.62574 35885 ft 520 kts 297°
2026-04-20 23:49 1.65807 -69.68996 35883 ft 520 kts 297°
2026-04-20 23:50 1.69103 -69.75388 35883 ft 520 kts 297°
2026-04-20 23:50 1.72441 -69.81804 35884 ft 520 kts 298°
2026-04-20 23:51 1.75817 -69.88201 35882 ft 520 kts 298°
2026-04-20 23:51 1.79185 -69.94598 35882 ft 520 kts 298°
2026-04-20 23:52 1.82549 -70.00990 35882 ft 519 kts 297°
2026-04-20 23:52 1.85909 -70.07379 35881 ft 517 kts 297°
2026-04-20 23:53 1.89241 -70.13713 35881 ft 518 kts 297°
2026-04-20 23:53 1.92590 -70.20082 35881 ft 518 kts 297°
2026-04-20 23:54 1.95944 -70.26461 35882 ft 518 kts 297°
2026-04-20 23:54 1.99301 -70.32847 35882 ft 519 kts 297°
2026-04-20 23:55 2.02655 -70.39227 35883 ft 517 kts 296°
2026-04-20 23:55 2.05993 -70.45577 35882 ft 517 kts 296°
2026-04-20 23:56 2.09343 -70.51953 35882 ft 517 kts 296°
2026-04-20 23:56 2.12668 -70.58280 35885 ft 517 kts 296°
2026-04-20 23:57 2.16033 -70.64682 35886 ft 517 kts 296°
2026-04-20 23:57 2.19359 -70.71013 35885 ft 517 kts 296°
2026-04-20 23:58 2.22702 -70.77380 35885 ft 517 kts 296°
2026-04-20 23:58 2.26045 -70.83748 35887 ft 517 kts 296°
2026-04-20 23:59 2.29396 -70.90130 35889 ft 517 kts 296°
2026-04-20 23:59 2.32725 -70.96510 35889 ft 517 kts 296°
2026-04-21 00:00 2.36058 -71.02906 35891 ft 517 kts 296°
2026-04-21 00:00 2.39367 -71.09258 35891 ft 518 kts 296°
2026-04-21 00:01 2.42691 -71.15638 35891 ft 518 kts 296°
2026-04-21 00:01 2.46021 -71.22031 35891 ft 518 kts 296°
2026-04-21 00:02 2.49366 -71.28452 35897 ft 522 kts 297°
2026-04-21 00:02 2.52719 -71.34885 35885 ft 521 kts 296°
2026-04-21 00:03 2.56050 -71.41282 35879 ft 516 kts 296°
2026-04-21 00:03 2.59373 -71.47664 35880 ft 517 kts 296°
2026-04-21 00:04 2.62671 -71.54000 35879 ft 518 kts 296°
2026-04-21 00:04 2.66007 -71.60410 35880 ft 518 kts 296°
2026-04-21 00:05 2.69331 -71.66795 35881 ft 515 kts 296°
2026-04-21 00:05 2.72636 -71.73149 35879 ft 514 kts 296°
2026-04-21 00:06 2.75939 -71.79498 35879 ft 515 kts 296°
2026-04-21 00:06 2.79249 -71.85860 35879 ft 515 kts 296°
2026-04-21 00:07 2.82533 -71.92175 35879 ft 515 kts 296°
2026-04-21 00:07 2.85840 -71.98536 35879 ft 515 kts 296°
2026-04-21 00:08 2.89143 -72.04889 35878 ft 515 kts 296°
2026-04-21 00:08 2.92443 -72.11238 35879 ft 515 kts 296°
2026-04-21 00:09 2.95762 -72.17624 35878 ft 517 kts 296°
2026-04-21 00:09 2.99082 -72.24013 35878 ft 517 kts 296°
2026-04-21 00:10 3.02393 -72.30381 35879 ft 516 kts 296°
2026-04-21 00:10 3.05703 -72.36756 35879 ft 516 kts 296°
2026-04-21 00:11 3.09013 -72.43130 35880 ft 516 kts 296°
2026-04-21 00:11 3.12305 -72.49474 35879 ft 516 kts 296°
2026-04-21 00:12 3.16113 -72.55560 35881 ft 517 kts 306°
2026-04-21 00:12 3.20660 -72.61160 35880 ft 518 kts 309°
2026-04-21 00:13 3.25319 -72.66669 35882 ft 518 kts 309°
2026-04-21 00:13 3.29915 -72.72184 35882 ft 518 kts 308°
2026-04-21 00:14 3.34512 -72.77732 35883 ft 518 kts 308°
2026-04-21 00:14 3.39103 -72.83278 35884 ft 518 kts 308°
2026-04-21 00:15 3.43709 -72.88848 35885 ft 518 kts 308°
2026-04-21 00:15 3.48306 -72.94410 35887 ft 518 kts 308°
2026-04-21 00:16 3.52903 -72.99974 35891 ft 518 kts 308°
2026-04-21 00:16 3.57500 -73.05540 35890 ft 518 kts 308°
2026-04-21 00:17 3.62070 -73.11074 35889 ft 518 kts 308°
2026-04-21 00:17 3.66667 -73.16641 35893 ft 518 kts 308°
2026-04-21 00:18 3.70513 -73.21301 35896 ft 518 kts 308°
2026-04-21 00:18 3.75104 -73.26863 35896 ft 518 kts 308°
2026-04-21 00:19 3.79673 -73.32400 35895 ft 518 kts 308°
2026-04-21 00:19 3.84282 -73.37986 35898 ft 519 kts 308°
2026-04-21 00:20 3.88892 -73.43574 35900 ft 520 kts 308°
2026-04-21 00:20 3.93501 -73.49162 35900 ft 521 kts 308°
2026-04-21 00:21 3.98109 -73.54750 35899 ft 520 kts 308°
2026-04-21 00:21 4.02720 -73.60343 35899 ft 520 kts 308°
2026-04-21 00:22 4.06314 -73.64704 35901 ft 521 kts 308°
2026-04-21 00:22 4.10901 -73.70269 35901 ft 521 kts 308°
2026-04-21 00:23 4.15527 -73.75884 35901 ft 521 kts 308°
2026-04-21 00:23 4.20135 -73.81477 35901 ft 520 kts 308°
2026-04-21 00:24 4.24741 -73.87069 35890 ft 519 kts 308°
2026-04-21 00:24 4.29340 -73.92654 35890 ft 519 kts 308°
2026-04-21 00:25 4.33940 -73.98242 35893 ft 520 kts 308°
2026-04-21 00:25 4.38542 -74.03832 35893 ft 520 kts 308°
2026-04-21 00:25 4.40831 -74.06613 36015 ft 518 kts 308°
2026-04-21 00:26 4.43128 -74.09401 36256 ft 515 kts 308°
2026-04-21 00:26 4.47672 -74.14925 36327 ft 519 kts 308°
2026-04-21 00:27 4.52290 -74.20541 36298 ft 524 kts 308°
2026-04-21 00:27 4.56954 -74.26215 36293 ft 528 kts 308°
2026-04-21 00:28 4.61630 -74.31918 36334 ft 530 kts 308°
2026-04-21 00:28 4.66279 -74.37689 36237 ft 535 kts 308°
2026-04-21 00:28 4.68597 -74.40566 35712 ft 537 kts 308°
2026-04-21 00:29 4.70944 -74.43477 35194 ft 536 kts 308°
2026-04-21 00:29 4.73292 -74.46385 34664 ft 532 kts 308°
2026-04-21 00:29 4.75599 -74.49245 34163 ft 527 kts 308°
2026-04-21 00:29 4.77891 -74.52089 33666 ft 521 kts 308°
2026-04-21 00:30 4.80164 -74.54910 33162 ft 517 kts 308°
2026-04-21 00:30 4.82413 -74.57703 32663 ft 512 kts 308°
2026-04-21 00:30 4.84636 -74.60462 32167 ft 507 kts 308°
2026-04-21 00:30 4.86847 -74.63208 31675 ft 502 kts 308°
2026-04-21 00:31 4.89008 -74.65889 31174 ft 498 kts 308°
2026-04-21 00:31 4.91098 -74.68636 30675 ft 493 kts 304°
2026-04-21 00:31 4.92974 -74.71488 30180 ft 488 kts 301°
2026-04-21 00:31 4.94730 -74.74392 29684 ft 483 kts 300°
2026-04-21 00:32 4.96426 -74.77286 29185 ft 479 kts 300°
2026-04-21 00:32 4.98119 -74.80143 28624 ft 476 kts 300°
2026-04-21 00:32 4.99821 -74.82987 28146 ft 472 kts 300°
2026-04-21 00:32 5.01505 -74.85787 27688 ft 467 kts 300°
2026-04-21 00:33 5.03177 -74.88558 27271 ft 461 kts 300°
2026-04-21 00:33 5.04833 -74.91300 26789 ft 456 kts 300°
2026-04-21 00:33 5.06451 -74.93976 26319 ft 452 kts 300°
2026-04-21 00:33 5.08076 -74.96663 25844 ft 448 kts 301°
2026-04-21 00:34 5.09686 -74.99321 25373 ft 444 kts 301°
2026-04-21 00:34 5.11286 -75.01960 24872 ft 441 kts 300°
2026-04-21 00:34 5.12867 -75.04571 24546 ft 434 kts 300°
2026-04-21 00:34 5.14428 -75.07151 24051 ft 431 kts 300°
2026-04-21 00:35 5.15979 -75.09714 23546 ft 429 kts 300°
2026-04-21 00:35 5.17523 -75.12267 23090 ft 426 kts 300°
2026-04-21 00:35 5.19059 -75.14800 22675 ft 421 kts 300°
2026-04-21 00:35 5.20562 -75.17284 22385 ft 413 kts 300°
2026-04-21 00:36 5.22046 -75.19739 21903 ft 411 kts 300°
2026-04-21 00:36 5.23531 -75.22199 21224 ft 414 kts 300°
2026-04-21 00:36 5.25025 -75.24669 20772 ft 411 kts 301°
2026-04-21 00:36 5.26495 -75.27102 20397 ft 406 kts 301°
2026-04-21 00:37 5.27956 -75.29521 19951 ft 403 kts 300°
2026-04-21 00:37 5.29384 -75.31886 19517 ft 399 kts 300°
2026-04-21 00:37 5.30821 -75.34265 19091 ft 396 kts 300°
2026-04-21 00:37 5.32315 -75.36571 18637 ft 393 kts 309°
2026-04-21 00:38 5.34365 -75.38361 18174 ft 392 kts 328°
2026-04-21 00:38 5.36879 -75.39404 17758 ft 389 kts 343°
2026-04-21 00:38 5.39517 -75.39973 17337 ft 387 kts 349°
2026-04-21 00:38 5.42181 -75.40322 16903 ft 384 kts 354°
2026-04-21 00:39 5.44840 -75.40512 16486 ft 381 kts 356°
2026-04-21 00:39 5.47467 -75.40622 16164 ft 376 kts 357°
2026-04-21 00:39 5.50078 -75.40727 15750 ft 373 kts 356°
2026-04-21 00:39 5.52662 -75.40850 15331 ft 370 kts 356°
2026-04-21 00:40 5.55192 -75.40981 15226 ft 358 kts 356°
2026-04-21 00:40 5.57640 -75.41112 15156 ft 346 kts 356°
2026-04-21 00:40 5.60000 -75.41241 15088 ft 333 kts 356°
2026-04-21 00:40 5.62245 -75.41364 15022 ft 321 kts 356°
2026-04-21 00:41 5.64436 -75.41486 14935 ft 310 kts 356°
2026-04-21 00:41 5.66571 -75.41604 14704 ft 304 kts 356°
2026-04-21 00:41 5.68703 -75.41722 14388 ft 302 kts 356°
2026-04-21 00:41 5.70787 -75.41838 14055 ft 300 kts 356°
2026-04-21 00:42 5.72836 -75.41952 13749 ft 297 kts 356°
2026-04-21 00:42 5.74905 -75.42067 13325 ft 299 kts 356°
2026-04-21 00:42 5.76974 -75.42182 13012 ft 296 kts 356°
2026-04-21 00:42 5.79027 -75.42257 12955 ft 297 kts 359°
2026-04-21 00:43 5.81104 -75.42247 12758 ft 297 kts
2026-04-21 00:43 5.83150 -75.42226 12565 ft 291 kts 360°
2026-04-21 00:43 5.85191 -75.42219 12369 ft 294 kts 359°
2026-04-21 00:43 5.87226 -75.42215 12196 ft 292 kts 359°
2026-04-21 00:44 5.89268 -75.42219 11991 ft 294 kts 359°
2026-04-21 00:44 5.91329 -75.42226 11499 ft 298 kts 359°
2026-04-21 00:44 5.93399 -75.42232 11144 ft 297 kts 359°
2026-04-21 00:45 5.97528 -75.42245 10438 ft 295 kts 359°
2026-04-21 00:45 5.99563 -75.42251 10265 ft 289 kts 360°
2026-04-21 00:45 6.01555 -75.42257 10207 ft 285 kts 360°
2026-04-21 00:45 6.03534 -75.42264 10197 ft 282 kts 360°
2026-04-21 00:46 6.05493 -75.42271 10200 ft 281 kts 360°
2026-04-21 00:46 6.07445 -75.42278 10215 ft 281 kts 360°
2026-04-21 00:46 6.09410 -75.42285 10265 ft 283 kts 359°
2026-04-21 00:46 6.11390 -75.42292 10311 ft 286 kts 359°
2026-04-21 00:47 6.13387 -75.42299 10312 ft 287 kts 359°
2026-04-21 00:47 6.15380 -75.42306 10313 ft 286 kts 359°
2026-04-21 00:47 6.17364 -75.42312 10317 ft 285 kts 359°
2026-04-21 00:47 6.19352 -75.42318 10316 ft 285 kts 359°
2026-04-21 00:48 6.21328 -75.42297 10311 ft 285 kts
2026-04-21 00:48 6.23201 -75.41672 10302 ft 285 kts 31°
2026-04-21 00:48 6.24599 -75.40305 10311 ft 287 kts 55°
2026-04-21 00:48 6.25295 -75.38436 10315 ft 287 kts 81°
2026-04-21 00:49 6.25129 -75.36468 10308 ft 287 kts 106°
2026-04-21 00:49 6.24135 -75.34662 10350 ft 303 kts 126°
2026-04-21 00:49 6.22750 -75.33042 10329 ft 308 kts 131°
2026-04-21 00:49 6.21186 -75.31571 10398 ft 309 kts 146°
2026-04-21 00:50 6.19213 -75.30781 10552 ft 307 kts 169°
2026-04-21 00:50 6.17096 -75.30556 10750 ft 306 kts 175°
2026-04-21 00:50 6.14962 -75.30464 10846 ft 307 kts 179°
2026-04-21 00:50 6.12827 -75.30435 10961 ft 308 kts 180°
2026-04-21 00:51 6.10684 -75.30420 10984 ft 304 kts 180°
2026-04-21 00:51 6.08632 -75.30403 10981 ft 284 kts 180°
2026-04-21 00:51 6.06734 -75.30385 10979 ft 263 kts 180°
2026-04-21 00:51 6.04983 -75.30368 10980 ft 239 kts 180°
2026-04-21 00:52 6.03345 -75.30351 10917 ft 233 kts 180°
2026-04-21 00:52 6.01762 -75.30332 10667 ft 228 kts 180°
2026-04-21 00:52 6.00188 -75.30338 10358 ft 225 kts 186°
2026-04-21 00:52 5.98740 -75.30884 9921 ft 225 kts 218°
2026-04-21 00:53 5.97850 -75.32167 9799 ft 227 kts 249°
2026-04-21 00:53 5.97797 -75.33680 9768 ft 211 kts 282°
2026-04-21 00:53 5.98485 -75.34935 9770 ft 202 kts 301°
2026-04-21 00:53 5.99239 -75.36131 9777 ft 202 kts 297°
2026-04-21 00:54 5.99994 -75.37299 9711 ft 199 kts 306°
2026-04-21 00:54 6.00865 -75.38363 9700 ft 196 kts 310°
2026-04-21 00:54 6.01740 -75.39383 9635 ft 194 kts 311°
2026-04-21 00:54 6.02622 -75.40407 9449 ft 193 kts 311°
2026-04-21 00:55 6.03602 -75.41315 9245 ft 193 kts 328°
2026-04-21 00:55 6.04873 -75.41726 8844 ft 193 kts 350°
2026-04-21 00:55 6.06195 -75.41904 8627 ft 190 kts 350°
2026-04-21 00:55 6.07494 -75.42108 8463 ft 189 kts 353°
2026-04-21 00:56 6.08795 -75.42240 8201 ft 186 kts 356°
2026-04-21 00:56 6.10086 -75.42285 7993 ft 184 kts 359°
2026-04-21 00:56 6.11365 -75.42262 7700 ft 183 kts 359°
2026-04-21 00:56 6.12630 -75.42288 7508 ft 181 kts 359°
2026-04-21 00:57 6.13893 -75.42293 7255 ft 181 kts 359°
2026-04-21 00:57 6.15141 -75.42296 7042 ft 174 kts 356°
2026-04-21 00:57 6.16257 -75.42313 7039 ft 144 kts
2026-04-21 00:57 6.17045 -75.42317 7039 ft 84 kts
2026-04-21 00:58 6.17442 -75.42320 7039 ft 33 kts 360°
2026-04-21 00:58 6.17592 -75.42336 7039 ft 14 kts 300°
2026-04-21 00:58 6.17610 -75.42427 7039 ft 13 kts 275°
2026-04-21 00:58 6.17617 -75.42516 7039 ft 13 kts 266°
2026-04-21 00:59 6.17615 -75.42602 7039 ft 12 kts 274°
2026-04-21 00:59 6.17620 -75.42674 7039 ft 0 kts 274°